Retour au catalogue

TITAN 3C TRANSTAGE DEB

ActifVLEO
NORAD 1835·DEBRIS·🇺🇸 United States

Lancé Oct 15, 1965 depuis Cape Canaveral Space Force Station

Loading…

Prochains Passages (prochaines 24 heures)

TLE

FraisSource: Space-Track

Époque: Sep 14, 2026, 21:06 UTC

1 01835U 65082EA  26257.87956026  .00003782  00000-0  22584-3 0  9997
2 01835  32.3944 172.1707 0011505   9.9824 350.1067 15.09726780260930

Suivez TITAN 3C TRANSTAGE DEB en temps réel avec AllMySat

Download on the App Store